contact:dominique.lefevre@mio.osupytheas.fr, maurice.libes@osupytheas.fr, didier.mallarino@osupytheas.fr
Project:EMSO http://www.emso-fr.org/EMSO-France
Depth: 2436.0 m
Title:EMSO Ligure Ouest : Data MII capteur AQUADOPP
Date,Latitude,Longitude,X_East,Y_North,Z_Up,Amplitude_X,Amplitude_Y,Amplitude_Z,Batterie,SoundSpeed,Heading,Pitch,Roll,Pressure,TIS,Speed,Direction
, degrees North, degrees East, m.s-1, m.s-1,m.s-1, 1, 1, 1, Volt, m.s-1, degree, degree, degree, dbar, degree_C, m.s-1, degree
2021-09-02T00:04:03,42.805,6.029,0.053,-0.011,0.022,100.0,101.0,100.0,13.4,1505.2,331.0,-0.8,1.8,2470.735,13.28,0.054,101.7
2021-09-02T00:07:03,42.805,6.029,0.044,-0.015,0.0,101.0,102.0,100.0,13.4,1505.2,329.7,-0.7,1.8,2470.797,13.28,0.046,108.8
2021-09-02T00:10:03,42.805,6.029,0.036,-0.017,-0.021,103.0,101.0,99.0,13.4,1505.2,326.9,-0.8,1.8,2470.725,13.28,0.039,115.3
2021-09-02T00:13:03,42.805,6.029,0.046,-0.027,0.025,99.0,103.0,100.0,13.3,1505.2,328.9,-0.8,1.8,2470.766,13.28,0.053,120.4
2021-09-02T00:16:03,42.805,6.029,0.051,-0.032,0.043,101.0,103.0,99.0,13.4,1505.2,326.3,-0.8,1.8,2470.76,13.28,0.06,122.1
2021-09-02T00:19:03,42.805,6.029,0.068,-0.015,0.05,101.0,101.0,100.0,13.4,1505.2,327.2,-0.8,1.8,2470.705,13.28,0.069,102.4
2021-09-02T00:22:03,42.805,6.029,0.052,-0.027,0.011,101.0,101.0,100.0,13.4,1505.2,325.7,-0.8,1.8,2470.741,13.28,0.058,117.4
2021-09-02T00:25:03,42.805,6.029,0.028,-0.019,0.023,101.0,102.0,100.0,13.4,1505.2,331.1,-0.8,1.9,2470.723,13.28,0.033,124.2
2021-09-02T00:28:03,42.805,6.029,0.061,0.001,-0.01,101.0,102.0,100.0,13.4,1505.2,326.7,-0.7,1.8,2470.735,13.28,0.061,89.1
2021-09-02T00:31:03,42.805,6.029,0.029,-0.014,-0.001,101.0,102.0,100.0,13.4,1505.2,327.2,-0.7,1.8,2470.734,13.28,0.032,115.8
2021-09-02T00:34:03,42.805,6.029,0.072,-0.023,0.038,101.0,100.0,100.0,13.4,1505.2,326.3,-0.7,1.8,2470.728,13.28,0.075,107.7
2021-09-02T00:37:03,42.805,6.029,0.061,-0.032,0.024,99.0,103.0,99.0,13.4,1505.2,330.7,-0.7,1.8,2470.766,13.28,0.068,117.7
2021-09-02T00:40:03,42.805,6.029,0.048,-0.016,0.036,101.0,102.0,100.0,13.4,1505.2,329.3,-0.8,1.8,2470.697,13.28,0.05,108.4
2021-09-02T00:43:03,42.805,6.029,0.037,-0.039,-0.016,100.0,101.0,100.0,13.4,1505.2,329.5,-0.7,1.8,2470.714,13.28,0.053,136.5
2021-09-02T00:46:03,42.805,6.029,0.055,-0.024,-0.003,100.0,103.0,100.0,13.4,1505.2,329.8,-0.7,1.8,2470.712,13.28,0.06,113.6
2021-09-02T00:49:03,42.805,6.029,0.046,-0.01,0.007,101.0,101.0,100.0,13.3,1505.2,326.7,-0.7,1.8,2470.724,13.28,0.047,102.3
2021-09-02T00:52:03,42.805,6.029,0.048,-0.034,0.003,102.0,104.0,100.0,13.4,1505.2,329.5,-0.8,1.8,2470.724,13.28,0.058,125.3
2021-09-02T00:55:03,42.805,6.029,0.031,-0.033,-0.045,100.0,101.0,101.0,13.4,1505.2,328.1,-0.8,1.8,2470.723,13.28,0.045,136.8
2021-09-02T00:58:03,42.805,6.029,0.061,-0.013,0.01,101.0,102.0,100.0,13.4,1505.2,326.3,-0.8,1.8,2470.714,13.28,0.062,102.0
2021-09-02T01:04:03,42.805,6.029,0.036,-0.042,0.017,103.0,103.0,102.0,13.4,1505.2,329.6,-0.8,1.8,2470.75,13.28,0.055,139.4
2021-09-02T01:07:03,42.805,6.029,0.072,-0.009,0.033,101.0,102.0,101.0,13.4,1505.2,326.1,-0.8,1.8,2470.769,13.28,0.072,97.1
2021-09-02T01:10:03,42.805,6.029,0.024,-0.006,0.004,101.0,102.0,101.0,13.4,1505.2,326.6,-0.7,1.8,2470.736,13.28,0.024,104.0
2021-09-02T01:13:03,42.805,6.029,0.041,-0.018,0.013,101.0,101.0,101.0,13.4,1505.2,329.4,-0.7,1.8,2470.74,13.28,0.044,113.7
2021-09-02T01:16:03,42.805,6.029,0.081,-0.035,-0.012,102.0,100.0,100.0,13.3,1505.2,326.3,-0.7,1.8,2470.693,13.28,0.088,113.4
2021-09-02T01:19:03,42.805,6.029,0.075,-0.027,0.011,101.0,101.0,100.0,13.3,1505.2,328.0,-0.8,1.8,2470.732,13.28,0.079,109.8
2021-09-02T01:22:03,42.805,6.029,0.078,-0.015,0.026,99.0,103.0,100.0,13.3,1505.2,329.9,-0.7,1.9,2470.731,13.28,0.079,100.9
2021-09-02T01:25:03,42.805,6.029,0.052,-0.04,-0.009,102.0,101.0,99.0,13.4,1505.2,330.3,-0.7,1.8,2470.686,13.28,0.065,127.6
2021-09-02T01:28:03,42.805,6.029,0.05,-0.049,-0.007,100.0,103.0,99.0,13.4,1505.2,330.5,-0.8,1.8,2470.697,13.28,0.07,134.4
2021-09-02T01:31:03,42.805,6.029,0.054,-0.032,-0.012,102.0,100.0,100.0,13.4,1505.2,326.9,-0.8,1.9,2470.703,13.28,0.062,120.7
2021-09-02T01:34:03,42.805,6.029,0.012,-0.026,-0.016,100.0,100.0,101.0,13.4,1505.2,326.4,-0.7,1.8,2470.732,13.28,0.028,155.2
2021-09-02T01:37:03,42.805,6.029,0.072,-0.033,0.014,100.0,102.0,100.0,13.3,1505.2,328.4,-0.7,1.8,2470.736,13.28,0.079,114.6
2021-09-02T01:40:03,42.805,6.029,0.047,-0.02,0.012,100.0,102.0,100.0,13.4,1505.2,328.6,-0.8,1.8,2470.716,13.28,0.051,113.0
2021-09-02T01:43:03,42.805,6.029,0.059,-0.018,0.013,100.0,102.0,101.0,13.4,1505.2,327.0,-0.8,1.8,2470.731,13.28,0.061,107.0
2021-09-02T01:46:03,42.805,6.029,0.061,-0.023,0.012,99.0,101.0,101.0,13.3,1505.2,328.9,-0.8,1.8,2470.717,13.28,0.065,110.7
2021-09-02T01:49:03,42.805,6.029,0.06,-0.028,0.001,101.0,103.0,100.0,13.4,1505.2,328.2,-0.7,1.9,2470.705,13.28,0.066,115.0
2021-09-02T01:52:03,42.805,6.029,0.053,-0.017,-0.002,101.0,100.0,100.0,13.4,1505.2,327.6,-0.8,1.8,2470.718,13.28,0.055,107.8
2021-09-02T01:55:03,42.805,6.029,0.053,-0.042,-0.016,102.0,100.0,99.0,13.3,1505.2,327.2,-0.7,1.8,2470.733,13.28,0.067,128.4
2021-09-02T01:58:03,42.805,6.029,0.073,-0.031,0.011,101.0,101.0,100.0,13.4,1505.2,330.0,-0.7,1.8,2470.736,13.28,0.079,113.0
2021-09-02T02:04:03,42.805,6.029,0.033,-0.032,0.01,100.0,101.0,101.0,13.3,1505.2,328.8,-0.7,1.8,2470.754,13.28,0.045,134.1
2021-09-02T02:07:03,42.805,6.029,0.069,-0.054,-0.004,99.0,103.0,100.0,13.3,1505.2,331.3,-0.8,1.8,2470.768,13.28,0.087,128.0
2021-09-02T02:10:03,42.805,6.029,0.054,-0.018,0.005,99.0,102.0,101.0,13.3,1505.2,330.7,-0.8,1.8,2470.737,13.28,0.056,108.4
2021-09-02T02:13:03,42.805,6.029,0.076,-0.036,0.021,102.0,101.0,100.0,13.3,1505.2,331.3,-0.8,1.8,2470.718,13.28,0.084,115.3
2021-09-02T02:16:03,42.805,6.029,0.043,-0.036,0.006,101.0,101.0,101.0,13.3,1505.2,329.4,-0.7,1.8,2470.76,13.28,0.056,129.9
2021-09-02T02:19:03,42.805,6.029,0.063,-0.034,0.002,102.0,103.0,99.0,13.3,1505.2,328.7,-0.8,1.8,2470.727,13.28,0.071,118.4
2021-09-02T02:22:03,42.805,6.029,0.055,-0.022,-0.012,100.0,103.0,100.0,13.4,1505.2,325.7,-0.8,1.8,2470.743,13.28,0.059,111.8
2021-09-02T02:25:03,42.805,6.029,0.05,-0.017,0.012,101.0,102.0,100.0,13.4,1505.2,328.6,-0.7,1.9,2470.752,13.28,0.052,108.8
2021-09-02T02:28:03,42.805,6.029,0.061,-0.019,0.004,99.0,103.0,101.0,13.4,1505.2,327.7,-0.7,1.8,2470.761,13.28,0.063,107.3
2021-09-02T02:31:03,42.805,6.029,0.059,-0.019,0.058,100.0,102.0,100.0,13.4,1505.2,330.9,-0.8,1.8,2470.708,13.28,0.061,107.8
2021-09-02T02:34:03,42.805,6.029,0.082,-0.028,0.014,100.0,101.0,100.0,13.4,1505.2,328.8,-0.7,1.8,2470.689,13.28,0.086,108.9
2021-09-02T02:37:03,42.805,6.029,0.053,-0.015,0.013,101.0,101.0,101.0,13.3,1505.2,327.9,-0.7,1.8,2470.711,13.28,0.055,105.8
2021-09-02T02:40:03,42.805,6.029,0.046,-0.016,0.004,101.0,101.0,101.0,13.4,1505.2,329.6,-0.7,1.9,2470.699,13.28,0.048,109.2
2021-09-02T02:43:03,42.805,6.029,0.056,-0.016,0.003,100.0,101.0,101.0,13.3,1505.2,330.0,-0.7,1.8,2470.746,13.28,0.058,105.9
2021-09-02T02:46:03,42.805,6.029,0.051,-0.024,0.016,101.0,101.0,100.0,13.3,1505.2,327.9,-0.8,1.8,2470.72,13.28,0.056,115.2
2021-09-02T02:49:03,42.805,6.029,0.068,-0.021,0.019,101.0,101.0,101.0,13.4,1505.2,325.7,-0.7,1.8,2470.737,13.28,0.071,107.2
2021-09-02T02:52:03,42.805,6.029,0.065,-0.058,-0.064,102.0,101.0,100.0,13.4,1505.2,326.3,-0.8,1.8,2470.675,13.28,0.087,131.7
2021-09-02T02:55:03,42.805,6.029,0.065,-0.038,0.001,100.0,101.0,101.0,13.4,1505.2,329.4,-0.8,1.9,2470.723,13.28,0.075,120.3
2021-09-02T02:58:03,42.805,6.029,0.095,-0.01,0.055,101.0,101.0,100.0,13.4,1505.2,328.3,-0.7,1.8,2470.689,13.28,0.095,96.0
2021-09-02T03:04:03,42.805,6.029,0.077,-0.025,0.014,102.0,101.0,100.0,13.4,1505.2,325.7,-0.8,1.8,2470.728,13.28,0.08,108.0
2021-09-02T03:07:03,42.805,6.029,0.05,-0.014,-0.015,102.0,102.0,101.0,13.4,1505.2,330.4,-0.7,1.8,2470.743,13.28,0.051,105.6
2021-09-02T03:10:03,42.805,6.029,0.054,-0.014,0.019,100.0,101.0,101.0,13.4,1505.2,326.9,-0.8,1.9,2470.72,13.28,0.055,104.5
2021-09-02T03:13:03,42.805,6.029,0.045,-0.012,0.001,102.0,101.0,101.0,13.4,1505.2,325.6,-0.7,1.8,2470.723,13.28,0.046,104.9
2021-09-02T03:16:03,42.805,6.029,0.041,-0.016,0.018,102.0,102.0,101.0,13.4,1505.2,328.0,-0.7,1.8,2470.692,13.28,0.044,111.3
2021-09-02T03:19:03,42.805,6.029,0.083,-0.034,0.02,99.0,101.0,102.0,13.4,1505.2,325.5,-0.8,1.8,2470.742,13.28,0.089,112.3
2021-09-02T03:22:03,42.805,6.029,0.057,-0.018,0.0,102.0,101.0,101.0,13.4,1505.2,330.5,-0.8,1.8,2470.731,13.28,0.059,107.5
2021-09-02T03:25:03,42.805,6.029,0.062,-0.011,0.029,101.0,102.0,101.0,13.4,1505.2,327.1,-0.7,1.8,2470.749,13.28,0.062,100.1
2021-09-02T03:28:03,42.805,6.029,0.084,-0.039,0.01,102.0,100.0,100.0,13.3,1505.2,329.7,-0.8,1.8,2470.712,13.28,0.092,114.9
2021-09-02T03:31:03,42.805,6.029,0.075,-0.028,0.004,101.0,101.0,101.0,13.4,1505.2,326.0,-0.7,1.8,2470.694,13.28,0.08,110.5
2021-09-02T03:34:03,42.805,6.029,0.074,-0.034,0.006,100.0,102.0,101.0,13.4,1505.2,330.9,-0.7,1.8,2470.727,13.28,0.081,114.7
2021-09-02T03:37:03,42.805,6.029,0.081,-0.028,0.019,102.0,102.0,101.0,13.4,1505.2,328.8,-0.7,1.9,2470.697,13.28,0.085,109.1
2021-09-02T03:40:03,42.805,6.029,0.044,-0.002,0.006,102.0,102.0,100.0,13.4,1505.2,329.5,-0.7,1.8,2470.746,13.28,0.044,92.6
2021-09-02T03:43:03,42.805,6.029,0.075,-0.041,0.005,100.0,104.0,100.0,13.4,1505.2,328.0,-0.7,1.8,2470.73,13.28,0.085,118.7
2021-09-02T03:46:03,42.805,6.029,0.06,-0.024,0.043,102.0,102.0,101.0,13.4,1505.2,329.0,-0.8,1.8,2470.709,13.28,0.064,111.8
2021-09-02T03:49:03,42.805,6.029,0.089,-0.025,0.03,102.0,102.0,101.0,13.4,1505.2,325.2,-0.7,1.9,2470.712,13.28,0.092,105.7
2021-09-02T03:52:03,42.805,6.029,0.062,-0.025,0.004,101.0,104.0,100.0,13.4,1505.2,329.4,-0.7,1.8,2470.718,13.28,0.066,112.0
2021-09-02T03:55:03,42.805,6.029,0.064,-0.01,0.019,101.0,102.0,101.0,13.4,1505.2,326.4,-0.8,1.9,2470.722,13.28,0.064,98.9
2021-09-02T03:58:03,42.805,6.029,0.054,-0.02,0.017,100.0,101.0,101.0,13.3,1505.2,325.5,-0.7,1.8,2470.749,13.28,0.057,110.3
2021-09-02T04:04:03,42.805,6.029,0.057,-0.011,0.01,101.0,102.0,101.0,13.4,1505.2,328.2,-0.8,1.8,2470.791,13.28,0.058,100.9
2021-09-02T04:07:03,42.805,6.029,0.068,-0.024,0.01,101.0,103.0,101.0,13.4,1505.2,329.6,-0.8,1.9,2470.753,13.28,0.072,109.4
2021-09-02T04:10:03,42.805,6.029,0.066,-0.038,0.013,102.0,102.0,101.0,13.4,1505.2,327.3,-0.7,1.8,2470.719,13.28,0.076,119.9
2021-09-02T04:13:03,42.805,6.029,0.07,-0.016,0.016,102.0,102.0,101.0,13.3,1505.2,329.2,-0.7,1.8,2470.747,13.28,0.071,102.9
2021-09-02T04:16:03,42.805,6.029,0.071,-0.028,0.017,101.0,102.0,101.0,13.4,1505.2,328.9,-0.7,1.8,2470.742,13.28,0.076,111.5
2021-09-02T04:19:03,42.805,6.029,0.071,-0.015,0.031,101.0,102.0,101.0,13.4,1505.2,329.1,-0.8,1.8,2470.763,13.28,0.072,101.9
2021-09-02T04:22:03,42.805,6.029,0.082,-0.031,0.029,100.0,103.0,102.0,13.4,1505.2,325.9,-0.8,1.8,2470.746,13.28,0.087,110.7
2021-09-02T04:25:03,42.805,6.029,0.052,-0.025,0.04,101.0,102.0,102.0,13.3,1505.2,328.7,-0.7,1.8,2470.73,13.28,0.057,115.7
2021-09-02T04:28:03,42.805,6.029,0.051,-0.053,-0.002,102.0,102.0,101.0,13.4,1505.2,328.9,-0.8,1.8,2470.73,13.28,0.073,136.1
2021-09-02T04:31:03,42.805,6.029,0.05,-0.024,0.003,101.0,101.0,101.0,13.4,1505.2,329.3,-0.7,1.8,2470.713,13.28,0.055,115.6
2021-09-02T04:34:03,42.805,6.029,0.056,-0.034,-0.008,102.0,101.0,101.0,13.4,1505.2,330.5,-0.8,1.8,2470.696,13.28,0.065,121.3
2021-09-02T04:37:03,42.805,6.029,0.049,-0.016,0.0,101.0,103.0,102.0,13.4,1505.2,327.8,-0.8,1.8,2470.749,13.28,0.051,108.1
2021-09-02T04:40:03,42.805,6.029,0.07,-0.017,0.011,101.0,103.0,101.0,13.3,1505.2,327.5,-0.7,1.8,2470.756,13.28,0.072,103.7
2021-09-02T04:43:03,42.805,6.029,0.044,-0.013,0.039,101.0,101.0,101.0,13.3,1505.2,329.3,-0.8,1.8,2470.698,13.28,0.045,106.5
2021-09-02T04:46:03,42.805,6.029,0.066,-0.027,0.01,103.0,102.0,101.0,13.4,1505.2,326.7,-0.7,1.8,2470.714,13.28,0.071,112.2
2021-09-02T04:49:03,42.805,6.029,0.051,-0.042,-0.032,102.0,102.0,100.0,13.3,1505.2,328.2,-0.8,1.8,2470.703,13.28,0.066,129.5
2021-09-02T04:52:03,42.805,6.029,0.041,-0.008,0.036,101.0,102.0,100.0,13.4,1505.2,327.6,-0.8,1.8,2470.754,13.28,0.041,101.0
2021-09-02T04:55:03,42.805,6.029,0.075,-0.03,-0.021,102.0,102.0,100.0,13.4,1505.2,325.3,-0.8,1.8,2470.732,13.28,0.08,111.8
2021-09-02T04:58:03,42.805,6.029,0.05,-0.023,0.009,100.0,102.0,102.0,13.3,1505.2,325.7,-0.8,1.8,2470.749,13.28,0.055,114.7
2021-09-02T05:04:03,42.805,6.029,0.082,-0.033,0.018,101.0,102.0,101.0,13.4,1505.2,325.4,-0.7,1.8,2470.782,13.28,0.088,111.9
2021-09-02T05:07:03,42.805,6.029,0.057,-0.025,0.009,102.0,101.0,101.0,13.3,1505.2,327.3,-0.7,1.8,2470.75,13.28,0.062,113.7
2021-09-02T05:10:03,42.805,6.029,0.033,-0.032,-0.015,102.0,103.0,100.0,13.4,1505.2,329.2,-0.7,1.9,2470.726,13.28,0.045,134.1
2021-09-02T05:13:03,42.805,6.029,0.072,-0.034,0.004,102.0,103.0,100.0,13.3,1505.2,330.7,-0.7,1.8,2470.748,13.28,0.079,115.3
2021-09-02T05:16:03,42.805,6.029,0.048,-0.042,0.003,102.0,100.0,101.0,13.3,1505.2,326.4,-0.7,1.8,2470.741,13.28,0.063,131.2
2021-09-02T05:19:03,42.805,6.029,0.062,-0.03,-0.004,101.0,103.0,102.0,13.3,1505.2,329.3,-0.8,1.8,2470.777,13.28,0.068,115.8
2021-09-02T05:22:03,42.805,6.029,0.049,-0.029,0.023,102.0,101.0,101.0,13.4,1505.2,328.3,-0.8,1.8,2470.733,13.28,0.056,120.6
2021-09-02T05:25:03,42.805,6.029,0.06,-0.034,-0.018,102.0,103.0,101.0,13.4,1505.2,331.3,-0.8,1.8,2470.767,13.28,0.068,119.5
2021-09-02T05:28:03,42.805,6.029,0.056,-0.037,0.01,103.0,102.0,100.0,13.3,1505.2,330.5,-0.8,1.8,2470.704,13.28,0.067,123.5
2021-09-02T05:31:03,42.805,6.029,0.061,-0.026,0.009,101.0,103.0,101.0,13.3,1505.2,330.0,-0.7,1.8,2470.742,13.28,0.066,113.1
2021-09-02T05:34:03,42.805,6.029,0.06,-0.022,0.011,101.0,101.0,101.0,13.4,1505.2,327.5,-0.7,1.8,2470.712,13.28,0.063,110.1
2021-09-02T05:37:03,42.805,6.029,0.073,-0.013,-0.005,101.0,101.0,101.0,13.4,1505.2,329.1,-0.7,1.8,2470.739,13.28,0.074,100.1
2021-09-02T05:40:03,42.805,6.029,0.069,-0.009,0.0,102.0,103.0,100.0,13.4,1505.2,325.4,-0.8,1.8,2470.708,13.28,0.069,97.4
2021-09-02T05:43:03,42.805,6.029,0.078,-0.054,-0.008,102.0,102.0,100.0,13.3,1505.2,327.7,-0.7,1.8,2470.714,13.28,0.094,124.7
2021-09-02T05:46:03,42.805,6.029,0.079,-0.022,0.011,102.0,101.0,101.0,13.4,1505.2,328.8,-0.8,1.8,2470.717,13.28,0.082,105.6
2021-09-02T05:49:03,42.805,6.029,0.062,-0.042,0.0,101.0,101.0,100.0,13.4,1505.2,326.6,-0.8,1.8,2470.697,13.28,0.074,124.1
2021-09-02T05:52:03,42.805,6.029,0.057,-0.02,0.024,101.0,102.0,101.0,13.4,1505.2,327.8,-0.7,1.8,2470.69,13.28,0.06,109.3
2021-09-02T05:55:03,42.805,6.029,0.073,-0.018,0.02,102.0,101.0,101.0,13.4,1505.2,327.4,-0.8,1.8,2470.726,13.28,0.075,103.8
2021-09-02T05:58:03,42.805,6.029,0.065,-0.029,0.015,103.0,102.0,100.0,13.4,1505.2,327.4,-0.7,1.8,2470.673,13.28,0.071,114.0
2021-09-02T06:04:03,42.805,6.029,0.066,-0.017,0.008,102.0,101.0,101.0,13.3,1505.2,325.5,-0.8,1.8,2470.704,13.28,0.068,104.4
2021-09-02T06:07:03,42.805,6.029,0.051,-0.013,0.043,102.0,101.0,101.0,13.4,1505.2,328.3,-0.7,1.8,2470.719,13.28,0.052,104.3
2021-09-02T06:10:03,42.805,6.029,0.064,-0.029,0.01,102.0,102.0,101.0,13.3,1505.2,328.5,-0.7,1.8,2470.793,13.28,0.07,114.4
2021-09-02T06:13:03,42.805,6.029,0.045,-0.019,-0.024,102.0,101.0,101.0,13.3,1505.2,328.6,-0.7,1.8,2470.714,13.28,0.048,112.9
2021-09-02T06:16:03,42.805,6.029,0.084,-0.03,0.0,101.0,102.0,100.0,13.3,1505.2,328.9,-0.7,1.8,2470.763,13.28,0.089,109.6
2021-09-02T06:19:03,42.805,6.029,0.062,-0.044,0.006,101.0,102.0,102.0,13.4,1505.2,329.4,-0.7,1.8,2470.742,13.28,0.076,125.4
2021-09-02T06:22:03,42.805,6.029,0.059,-0.015,-0.011,103.0,101.0,100.0,13.4,1505.2,330.5,-0.8,1.8,2470.732,13.28,0.06,104.3
2021-09-02T06:25:03,42.805,6.029,0.044,-0.037,-0.011,101.0,101.0,102.0,13.4,1505.2,328.6,-0.7,1.8,2470.712,13.28,0.057,130.1
2021-09-02T06:28:03,42.805,6.029,0.068,-0.028,0.006,102.0,102.0,101.0,13.3,1505.2,325.1,-0.7,1.8,2470.705,13.28,0.073,112.4
2021-09-02T06:31:03,42.805,6.029,0.073,-0.021,0.025,101.0,103.0,101.0,13.4,1505.2,330.7,-0.8,1.8,2470.72,13.28,0.075,106.0
2021-09-02T06:34:03,42.805,6.029,0.052,-0.016,-0.001,102.0,101.0,100.0,13.3,1505.2,329.0,-0.8,1.8,2470.714,13.28,0.054,107.1
2021-09-02T06:37:03,42.805,6.029,0.056,-0.013,0.025,102.0,101.0,100.0,13.4,1505.2,326.8,-0.8,1.8,2470.707,13.28,0.057,103.1
2021-09-02T06:40:03,42.805,6.029,0.077,-0.061,-0.016,101.0,102.0,101.0,13.4,1505.2,330.7,-0.7,1.8,2470.723,13.28,0.098,128.4
2021-09-02T06:43:03,42.805,6.029,0.05,-0.012,0.02,102.0,102.0,100.0,13.3,1505.2,329.9,-0.7,1.8,2470.707,13.28,0.051,103.5
2021-09-02T06:46:03,42.805,6.029,0.06,-0.019,0.003,102.0,102.0,100.0,13.3,1505.2,330.0,-0.8,1.8,2470.671,13.28,0.062,107.6
2021-09-02T06:49:03,42.805,6.029,0.047,-0.022,0.023,102.0,103.0,100.0,13.4,1505.2,330.9,-0.8,1.8,2470.704,13.28,0.051,115.1
2021-09-02T06:52:03,42.805,6.029,0.058,-0.012,0.005,102.0,103.0,101.0,13.4,1505.2,331.2,-0.7,1.8,2470.687,13.28,0.059,101.7
2021-09-02T06:55:03,42.805,6.029,0.03,-0.015,0.017,102.0,102.0,100.0,13.4,1505.2,329.4,-0.8,1.9,2470.732,13.28,0.033,116.6
2021-09-02T06:58:03,42.805,6.029,0.043,-0.006,0.0,103.0,103.0,100.0,13.4,1505.2,328.7,-0.7,1.8,2470.695,13.28,0.043,97.9
2021-09-02T07:04:03,42.805,6.029,0.063,-0.015,0.028,102.0,103.0,101.0,13.4,1505.2,327.6,-0.8,1.8,2470.738,13.28,0.064,103.4
2021-09-02T07:07:03,42.805,6.029,0.039,-0.042,-0.011,102.0,102.0,101.0,13.4,1505.2,326.9,-0.8,1.8,2470.689,13.28,0.057,137.1
2021-09-02T07:10:03,42.805,6.029,0.044,-0.024,0.015,102.0,103.0,101.0,13.4,1505.2,330.1,-0.8,1.8,2470.705,13.28,0.05,118.6
2021-09-02T07:13:03,42.805,6.029,0.072,-0.044,0.007,101.0,103.0,100.0,13.3,1505.2,328.4,-0.8,1.8,2470.706,13.28,0.084,121.4
2021-09-02T07:16:03,42.805,6.029,0.042,-0.022,0.003,102.0,102.0,101.0,13.4,1505.2,325.5,-0.7,1.8,2470.674,13.28,0.047,117.6
2021-09-02T07:19:03,42.805,6.029,0.061,-0.036,-0.013,102.0,102.0,101.0,13.4,1505.2,327.4,-0.7,1.8,2470.694,13.28,0.07,120.5
2021-09-02T07:22:03,42.805,6.029,0.072,-0.04,-0.007,102.0,102.0,101.0,13.4,1505.2,329.3,-0.8,1.9,2470.706,13.28,0.082,119.1
2021-09-02T07:25:03,42.805,6.029,0.057,-0.03,0.019,101.0,102.0,101.0,13.4,1505.2,328.9,-0.8,1.8,2470.684,13.28,0.064,117.8
2021-09-02T07:28:03,42.805,6.029,0.019,-0.027,-0.026,102.0,102.0,101.0,13.4,1505.2,330.6,-0.7,1.8,2470.695,13.28,0.033,144.9
2021-09-02T07:31:03,42.805,6.029,0.054,-0.031,-0.015,102.0,102.0,101.0,13.3,1505.2,329.5,-0.7,1.8,2470.701,13.28,0.062,119.9
2021-09-02T07:34:03,42.805,6.029,0.059,-0.022,0.019,101.0,103.0,100.0,13.4,1505.2,329.1,-0.7,1.8,2470.684,13.28,0.062,110.4
2021-09-02T07:37:03,42.805,6.029,0.071,-0.006,0.046,101.0,102.0,101.0,13.4,1505.2,326.7,-0.8,1.8,2470.655,13.28,0.071,94.8
2021-09-02T07:40:03,42.805,6.029,0.05,-0.035,0.017,101.0,103.0,100.0,13.4,1505.2,331.4,-0.8,1.8,2470.697,13.28,0.061,125.0
2021-09-02T07:43:03,42.805,6.029,0.048,-0.02,0.012,102.0,102.0,101.0,13.4,1505.2,328.5,-0.8,1.8,2470.683,13.28,0.052,112.6
2021-09-02T07:46:03,42.805,6.029,0.059,-0.001,0.017,102.0,102.0,100.0,13.4,1505.2,325.4,-0.8,1.8,2470.68,13.28,0.059,91.0
2021-09-02T07:49:03,42.805,6.029,0.06,-0.033,0.0,103.0,101.0,101.0,13.4,1505.2,328.4,-0.7,1.8,2470.678,13.28,0.068,118.8
2021-09-02T07:52:03,42.805,6.029,0.049,-0.017,-0.003,101.0,103.0,100.0,13.4,1505.2,328.5,-0.8,1.8,2470.702,13.28,0.051,109.1
2021-09-02T07:55:03,42.805,6.029,0.071,-0.034,0.013,101.0,102.0,101.0,13.3,1505.2,326.1,-0.8,1.8,2470.663,13.28,0.078,115.6
2021-09-02T07:58:03,42.805,6.029,0.056,-0.019,0.019,101.0,102.0,101.0,13.3,1505.2,326.6,-0.7,1.8,2470.671,13.28,0.059,108.7
2021-09-02T08:04:03,42.805,6.029,0.063,-0.015,0.009,102.0,102.0,101.0,13.4,1505.2,327.8,-0.8,1.8,2470.697,13.28,0.064,103.4
2021-09-02T08:07:03,42.805,6.029,0.082,-0.024,0.023,102.0,101.0,101.0,13.4,1505.2,327.9,-0.8,1.8,2470.637,13.28,0.085,106.3
2021-09-02T08:10:03,42.805,6.029,0.066,-0.021,0.009,102.0,101.0,101.0,13.4,1505.2,328.7,-0.8,1.8,2470.706,13.28,0.069,107.6
2021-09-02T08:13:03,42.805,6.029,0.083,-0.011,0.025,101.0,102.0,101.0,13.4,1505.2,325.6,-0.8,1.8,2470.68,13.28,0.083,97.5
2021-09-02T08:16:03,42.805,6.029,0.072,-0.033,-0.004,102.0,101.0,101.0,13.4,1505.2,330.7,-0.8,1.8,2470.651,13.28,0.079,114.6
2021-09-02T08:19:03,42.805,6.029,0.06,-0.026,0.024,101.0,102.0,100.0,13.4,1505.2,327.8,-0.8,1.8,2470.662,13.28,0.065,113.4
2021-09-02T08:22:03,42.805,6.029,0.064,-0.016,0.013,101.0,103.0,101.0,13.4,1505.2,326.1,-0.8,1.8,2470.674,13.28,0.065,104.0
2021-09-02T08:25:03,42.805,6.029,0.075,-0.022,0.022,101.0,103.0,102.0,13.4,1505.2,328.7,-0.7,1.8,2470.652,13.28,0.078,106.3
2021-09-02T08:28:03,42.805,6.029,0.044,-0.017,0.005,101.0,101.0,101.0,13.4,1505.2,326.4,-0.8,1.8,2470.666,13.28,0.047,111.1
2021-09-02T08:31:03,42.805,6.029,0.081,-0.051,0.006,102.0,101.0,101.0,13.4,1505.2,327.4,-0.8,1.8,2470.709,13.28,0.095,122.2
2021-09-02T08:34:03,42.805,6.029,0.072,-0.033,-0.01,101.0,102.0,101.0,13.3,1505.2,327.6,-0.7,1.8,2470.663,13.28,0.079,114.6
2021-09-02T08:37:03,42.805,6.029,0.042,-0.03,0.0,101.0,101.0,101.0,13.4,1505.2,330.9,-0.8,1.9,2470.674,13.28,0.051,125.5
2021-09-02T08:40:03,42.805,6.029,0.054,-0.042,0.008,102.0,103.0,101.0,13.4,1505.2,328.4,-0.8,1.8,2470.639,13.28,0.068,127.9
2021-09-02T08:43:03,42.805,6.029,0.058,-0.029,-0.006,102.0,102.0,101.0,13.4,1505.2,326.0,-0.7,1.8,2470.638,13.28,0.064,116.6
2021-09-02T08:46:03,42.805,6.029,0.081,-0.034,-0.02,101.0,102.0,101.0,13.4,1505.2,325.5,-0.8,1.8,2470.578,13.28,0.087,112.8
2021-09-02T08:49:03,42.805,6.029,0.056,-0.043,-0.007,103.0,101.0,101.0,13.4,1505.2,328.4,-0.8,1.8,2470.659,13.28,0.07,127.5
2021-09-02T08:52:03,42.805,6.029,0.054,-0.032,0.008,102.0,102.0,100.0,13.4,1505.2,330.5,-0.7,1.8,2470.65,13.28,0.062,120.7
2021-09-02T08:55:03,42.805,6.029,0.067,-0.034,0.005,103.0,101.0,101.0,13.4,1505.2,328.1,-0.7,1.9,2470.627,13.28,0.075,116.9
2021-09-02T08:58:03,42.805,6.029,0.076,-0.015,0.029,102.0,100.0,102.0,13.4,1505.2,326.1,-0.7,1.8,2470.627,13.28,0.077,101.2
2021-09-02T09:04:03,42.805,6.029,0.04,-0.017,-0.001,101.0,102.0,101.0,13.4,1505.2,326.6,-0.8,1.8,2470.674,13.28,0.043,113.0
2021-09-02T09:07:03,42.805,6.029,0.048,-0.014,-0.008,103.0,102.0,101.0,13.4,1505.2,325.7,-0.7,1.8,2470.666,13.28,0.05,106.3
2021-09-02T09:10:03,42.805,6.029,0.065,-0.036,-0.004,102.0,102.0,101.0,13.4,1505.2,328.1,-0.8,1.8,2470.649,13.28,0.074,119.0
2021-09-02T09:13:03,42.805,6.029,0.077,-0.056,-0.014,102.0,102.0,101.0,13.4,1505.2,329.9,-0.8,1.8,2470.644,13.28,0.095,126.0
2021-09-02T09:16:03,42.805,6.029,0.075,-0.029,-0.003,101.0,102.0,101.0,13.4,1505.2,329.6,-0.8,1.8,2470.657,13.28,0.08,111.1
2021-09-02T09:19:03,42.805,6.029,0.068,-0.04,0.013,101.0,102.0,100.0,13.4,1505.2,329.1,-0.8,1.8,2470.632,13.28,0.078,120.5
2021-09-02T09:22:03,42.805,6.029,0.056,-0.029,0.017,102.0,101.0,101.0,13.3,1505.2,328.8,-0.7,1.8,2470.68,13.28,0.063,117.4
2021-09-02T09:25:03,42.805,6.029,0.06,-0.022,-0.018,102.0,101.0,102.0,13.4,1505.2,328.7,-0.7,1.8,2470.668,13.28,0.063,110.1
2021-09-02T09:28:03,42.805,6.029,0.083,-0.031,-0.006,101.0,102.0,101.0,13.4,1505.2,327.3,-0.7,1.8,2470.657,13.28,0.088,110.5
2021-09-02T09:31:03,42.805,6.029,0.083,-0.018,0.029,103.0,101.0,101.0,13.4,1505.2,325.4,-0.7,1.8,2470.635,13.28,0.084,102.2
2021-09-02T09:34:03,42.805,6.029,0.083,-0.011,0.041,101.0,102.0,101.0,13.4,1505.2,328.0,-0.8,1.8,2470.652,13.28,0.083,97.5
2021-09-02T09:37:03,42.805,6.029,0.039,-0.037,0.013,101.0,102.0,102.0,13.4,1505.2,326.8,-0.8,1.9,2470.646,13.28,0.053,133.5
2021-09-02T09:40:03,42.805,6.029,0.082,-0.037,-0.025,101.0,103.0,100.0,13.4,1505.2,327.3,-0.7,1.8,2470.637,13.28,0.089,114.3
2021-09-02T09:43:03,42.805,6.029,0.057,-0.049,-0.002,101.0,102.0,101.0,13.4,1505.2,326.9,-0.8,1.8,2470.652,13.28,0.075,130.7
2021-09-02T09:46:03,42.805,6.029,0.076,-0.004,0.027,103.0,102.0,100.0,13.3,1505.2,325.8,-0.7,1.9,2470.639,13.28,0.076,93.0
2021-09-02T09:49:03,42.805,6.029,0.07,-0.019,0.018,104.0,102.0,100.0,13.4,1505.2,328.6,-0.7,1.8,2470.649,13.28,0.072,105.2
2021-09-02T09:52:03,42.805,6.029,0.075,-0.034,0.016,101.0,102.0,101.0,13.4,1505.2,329.3,-0.7,1.8,2470.651,13.28,0.082,114.4
2021-09-02T09:55:03,42.805,6.029,0.081,-0.021,0.021,102.0,103.0,101.0,13.4,1505.2,328.2,-0.8,1.8,2470.627,13.28,0.083,104.5
2021-09-02T09:58:03,42.805,6.029,0.085,-0.018,0.014,102.0,101.0,101.0,13.3,1505.2,327.8,-0.7,1.8,2470.656,13.28,0.086,102.0